Regional Weather Roundup
Issued by NWS

Home | Current Version | Previous Version | Graphics & Text | Print | Product List | Glossary On
Versions: 1 2 3 4 5 6 7 8 9 10 11 12 13 14 15 16 17 18 19 20 21 22 23 24 25 26 27 28 29 30 31 32 33 34 35 36 37 38 39 40 41 42 43 44 45 46 47 48 49 50
863
ASUS43 KDTX 211901
RWRMI
MICHIGAN HOURLY REGIONAL WEATHER ROUNDUP
NATIONAL WEATHER SERVICE DETROIT/PONTIAC MI
200 PM EST TUE FEB 21 2017

NOTE: "FAIR" INDICATES FEW OR NO CLOUDS BELOW 12,000 FEET WITH NO
SIGNIFICANT WEATHER AND/OR OBSTRUCTION TO VISIBILITY.

MIZ047>049-052>055-059>063-066>070-074>076-081>083-212000-
SOUTHEAST LOWER MICHIGAN

CITY           SKY/WX    TMP DP  RH WIND       PRES   REMARKS
ADRIAN         CLOUDY    54  47  77 SW8       29.95F
ALMA           CLOUDY    55  52  88 W12       29.90S FOG
ANN ARBOR      CLOUDY    56  47  71 S6        29.92F
BAD AXE        CLOUDY    49  47  93 W5        29.90S FOG
CARO           CLOUDY    53  50  87 SW6       29.89R
DETROIT CITY   CLOUDY    53  43  68 SW6       29.93S
DETROIT        CLOUDY    55  44  66 SW6       29.94R
FLINT          CLOUDY    59  50  72 SW7       29.90F
GROSSE ILE     CLOUDY    43  38  85 S9        29.95R
HILLSDALE      CLOUDY    54  50  87 S7        29.93S
HOWELL         MOSUNNY   60  51  73 W9        29.90F

CITY           SKY/WX    TMP DP  RH WIND       PRES   REMARKS
JACKSON        MOSUNNY   58  52  80 SW10      29.91F
LAMBERTVILLE   LGT RAIN  56  48  72 CALM      29.94F
LANSING        CLOUDY    59  50  72 W13       29.91S
LAPEER         CLOUDY    56  49  77 W7        29.90S
MASON          MOSUNNY   62  52  70 SW7       29.90F
MONROE         CLOUDY    53  47  80 SW5       29.93R
PONTIAC        CLOUDY    51  49  92 S5        29.90F FOG
PORT HOPE        N/A     49  47  93 W7        29.87F
PORT HURON     LGT RAIN  45  41  87 S6        29.92F
TRI CITIES     CLOUDY    54  52  93 W9        29.90S FOG
MIDLAND        CLOUDY    55  49  80 W7        29.88S
TROY           CLOUDY    52  39  61 S6        29.94S
SAGINAW HB     CLOUDY    54  48  82 W7        29.88F
$$
MIZ043>046-050>051-056>058-064>065-071>073-077>080-212000-
SOUTHWEST LOWER MICHIGAN

CITY           SKY/WX    TMP DP  RH WIND       PRES   REMARKS
BATTLE CREEK   PTSUNNY   62  52  69 SW14      29.92F
BENTON HARBOR  CLOUDY    57  52  83 W7        29.93F
BIG RAPIDS     CLOUDY    55  46  73 W9        29.89S
COLDWATER      CLOUDY    58  53  83 SW7       29.93F
FREMONT        PTSUNNY   56  47  72 W8        29.89F
HOLLAND        CLOUDY    50  48  93 W8        29.93F FOG
GRAND RAPIDS   CLOUDY    54  51  90 W13       29.91S FOG
IONIA          CLOUDY    56  51  85 W9        29.90S
KALAMAZOO      MOSUNNY   62  50  64 SW10      29.93S
LUDINGTON      SUNNY     50  44  78 W9        29.90S
MARSHALL       MOSUNNY   62  52  69 SW10      29.91S
MOUNT PLEASANT CLOUDY    54  50  88 W10       29.88F FOG
MUSKEGON       CLOUDY    52  46  80 VRB3      29.92F
SOUTH HAVEN    CLOUDY    50  48  93 W5        29.94R FOG
$$
MIZ016>042-212000-
NORTHERN LOWER MICHIGAN

CITY           SKY/WX    TMP DP  RH WIND       PRES   REMARKS
ALPENA         MOSUNNY   56  46  69 W14       29.83F
BEAVER ISLAND  SUNNY     49  42  75 SW12      29.83F
BELLAIRE       SUNNY     55  40  57 SW5       29.86F
CADILLAC       CLOUDY    53  46  77 SW9       29.87F
CHARLEVOIX     SUNNY     53  41  65 W17       29.88S
FRANKFORT      SUNNY     50  43  78 SW6       29.88F
GAYLORD        MOSUNNY   53  41  63 W9        29.84S
GRAYLING       MOSUNNY   53  46  77 W6        29.86F
HARBOR SPRINGS SUNNY     49  43  79 W8        29.84F
HOUGHTON LAKE  CLOUDY    49  46  90 W8        29.87F
MANISTEE       SUNNY     53  43  68 W8        29.88F
OSCODA         CLOUDY    50  47  88 W9G21     29.85F FOG
PELLSTON       SUNNY     50  40  68 W7        29.84R
ROGERS CITY    MOSUNNY   55  45  68 W10G16    29.83S
TRAVERSE CITY  MOSUNNY   58  41  53 W10       29.84F
$$
MIZ007>008-015-212000-
EASTERN UPPER MICHIGAN

CITY           SKY/WX    TMP DP  RH WIND       PRES   REMARKS
KINROSS        CLOUDY    40  40 100 NE3       29.82R FOG
MACKINAC ISLAN FOG       38  38 100 SW9       29.83R VSB<1/4 WCI  31
NEWBERRY       SUNNY     49  38  65 W5        29.79F
S. S. MARIE    CLOUDY    43  38  82 NW7       29.81R
MUNISING         N/A     56  30  37 W5        29.79F
$$
MIZ004>006-011>014-085-212000-
CENTRAL UPPER MICHIGAN

CITY           SKY/WX    TMP DP  RH WIND       PRES   REMARKS
MANISTIQUE     SUNNY     53  41  64 S7        29.81S
ESCANABA       SUNNY     58  36  43 SW10      29.83S
MENOMINEE      SUNNY     57  40  52 VRB6      29.86F
SAWYER-GWINN   SUNNY     52  34  50 W12       29.80F
$$
MIZ001>003-009>011-084-212000-
WESTERN UPPER MICHIGAN

CITY           SKY/WX    TMP DP  RH WIND       PRES   REMARKS
IRON MOUNTAIN  SUNNY     56  31  38 W12       29.81F
HOUGHTON       SUNNY     42  32  67 W17       29.77F
COPPER HARBOR    N/A     46  32  58 NW9       29.76S
IRONWOOD       SUNNY     53  32  44 SW10      29.79F
$$

ABBREVIATIONS USED IN REMARKS
   TC - TEMPERATURE IN CELSIUS
  WCI - WIND CHILL INDEX
   HX - HEAT INDEX
  VSB - VISIBILITY





USA.gov is the U.S. government's official web portal to all federal, state and local government web resources and services.